Location: Observatoire
(46.1952°N, 5.3391°E)
Time: 06:24:23
(UTC+01:00)

Explorer 7 - Pass Details

Date: 23 February 2026
Orbit: 430 x 542 km, 50.2° (Epoch: 5 March)

Event Time Altitude Azimuth Distance (km) Brightness Sun altitude
Rises 15:19:45 0° 265° (W) 2,414 10.8 25.1°
Reaches altitude 10° 15:21:53 10° 270° (W) 1,558 9.8 24.8°
Maximum altitude 15:25:18 51° 348° (NNW) 577 7.0 24.4°
Drops below altitude 10° 15:28:51 10° 65° (ENE) 1,613 8.8 24.0°
Sets 15:31:06 0° 71° (ENE) 2,511 9.7 23.8°
